Home   Weather   Glasgow   Past weeks

Flag for United Kingdom Past Weather in Glasgow, Scotland, United Kingdom — Yesterday and Last 2 Weeks

50 °F

Scattered clouds.

Feels Like: 46 °F
Forecast: 40 / 48 °F
Wind: 12 mph from East

Location: Glasgow Airport

Current Time: Oct 23, 2016 at 1:06:45 PM

Latest Report: Oct 23, 2016 at 12:20 PM

Visibility: N/A

Pressure: 30.09 "Hg

Humidity: 71%

Dew Point: 41 °F

Location of GlasgowLocation

Past Weather in Glasgow — Graph


Glasgow Temperature Yesterday

Maximum temperature yesterday: 52 °F (at 2:50 PM)
Minimum temperature yesterday: 39 °F (at 7:20 AM)
Average temperature yesterday: 45 °F

High & Low Weather Summary for the Past Weeks

High59 °F (Oct 8, 2:20 PM)100% (Oct 9, 7:50 AM)30.51 "Hg (Oct 9, 7:50 AM)
Low36 °F (Oct 10, 3:20 AM)55% (Oct 9, 2:50 PM)29.62 "Hg (Oct 15, 3:20 PM)
Average49 °F87%30.12 "Hg
* Reported Oct 8 11:20 AM — Oct 23 11:50 AM, Glasgow, Weather by CustomWeather, © 2016

Note: Actual official high and low records may vary slightly from our data, if they occured in-between our weather recording intervals... More about our weather records


Glasgow Weather History for the Previous 24 Hours

Scroll right to see more
Time TempWeatherWind HumidityBarometerVisibility
11:50 AM
Sun, Oct 23
50 °FScattered clouds.13 mph76%30.09 "HgN/A
11:20 AM48 °FPassing clouds.12 mph76%30.09 "HgN/A
10:50 AM48 °FPassing clouds.10 mph82%30.12 "HgN/A
10:20 AM46 °FCool.9 mph87%30.12 "HgN/A
9:50 AM46 °FCool.8 mph87%30.12 "HgN/A
9:20 AM45 °FQuite cool.7 mph87%30.12 "HgN/A
8:50 AM45 °FPartly sunny.7 mph87%30.12 "HgN/A
8:20 AM41 °FQuite cool.7 mph93%30.12 "HgN/A
7:50 AM43 °FPassing clouds.8 mph87%30.12 "HgN/A
7:20 AM43 °FPassing clouds.8 mph93%30.12 "HgN/A
6:50 AM45 °FMostly cloudy.9 mph87%30.12 "HgN/A
6:20 AM43 °FPassing clouds.7 mph93%30.12 "HgN/A
5:50 AM41 °FPassing clouds.3 mph93%30.12 "HgN/A
5:20 AM41 °FPassing clouds.2 mph93%30.12 "HgN/A
4:50 AM41 °FPartly cloudy.6 mph93%30.12 "HgN/A
4:20 AM43 °FOvercast.5 mph93%30.12 "HgN/A
3:50 AM43 °FPassing clouds.5 mph87%30.12 "HgN/A
3:20 AM43 °FPassing clouds.5 mph87%30.12 "HgN/A
2:50 AM45 °FPassing clouds.8 mph87%30.12 "HgN/A
2:20 AM45 °FPassing clouds.9 mph87%30.12 "HgN/A
1:50 AM43 °FQuite cool.9 mph93%30.12 "HgN/A
1:20 AM45 °FQuite cool.6 mph87%30.12 "HgN/A
12:50 AM46 °FPassing clouds.8 mph87%30.12 "HgN/A
12:20 AM45 °FLight rain. Passing clouds.9 mph93%30.15 "HgN/A
11:50 PM
Sat, Oct 22
45 °FMostly cloudy.7 mph93%30.15 "HgN/A
11:20 PM43 °FPassing clouds.3 mph93%30.15 "Hg4 mi
10:50 PM43 °FPassing clouds.2 mph93%30.15 "HgN/A
10:20 PM45 °FPassing clouds.5 mph93%30.15 "HgN/A
9:50 PM46 °FPassing clouds.3 mph87%30.15 "HgN/A
9:20 PM46 °FPassing clouds.6 mph87%30.15 "HgN/A
8:50 PM46 °FCool.8 mph87%30.15 "HgN/A
8:20 PM46 °FCool.9 mph87%30.15 "HgN/A
7:50 PM46 °FPassing clouds.9 mph87%30.15 "HgN/A
7:20 PM46 °FPassing clouds.7 mph87%30.15 "HgN/A
6:50 PM46 °FPassing clouds.6 mph93%30.15 "HgN/A
6:20 PM46 °FCool.6 mph87%30.12 "HgN/A
5:50 PM48 °FCool.7 mph87%30.12 "HgN/A
5:20 PM50 °FScattered clouds.7 mph88%30.12 "HgN/A
4:50 PM50 °FPartly sunny.9 mph82%30.12 "HgN/A
4:20 PM52 °FScattered clouds.8 mph82%30.12 "HgN/A
3:50 PM52 °FBroken clouds.10 mph82%30.12 "HgN/A
3:20 PM52 °FPartly sunny.9 mph82%30.12 "HgN/A
2:50 PM52 °FBroken clouds.6 mph88%30.12 "HgN/A
2:20 PM50 °FPartly sunny.3 mph88%30.15 "HgN/A
1:50 PM48 °FPartly sunny.3 mph94%30.15 "HgN/A
1:20 PM48 °FPassing clouds.2 mph87%30.15 "HgN/A
Weather by CustomWeather, © 2016

See weather overviewHow to use our weather pages